Flag for Germany Weather past 2 weeks in Neu-Isenburg, Hesse, Germany

Now
67 °F

Passing clouds.


Feels Like: 67 °F
Forecast: 66 / 76 °F
Wind: 2 mph from Southwest

Location: Frankfurt / M-Flughafen

Current Time: Jul 29, 2014 at 1:24:04 AM

Latest Report: Jul 29, 2014 at 1:00 AM


Visibility: 16 mi

Pressure: 29.79 "Hg

Humidity: 92%

Dew point: 65 °F

Location of Neu-IsenburgLocation

Historic Weather in Neu-Isenburg — Graph

°F

Neu-Isenburg temperature yesterday

Maximum temperature yesterday: 85 °F (at 4:00 PM)
Minimum temperature yesterday: 65 °F (at 6:00 AM)
Average temperature yesterday: 73 °F

Past Weeks' High & Low Weather Summary

 TemperatureHumidityPressure
High93 °F (Jul 19, 5:00 PM)93% (Jul 21, 12:00 AM)30.19 "Hg (Jul 21, 12:00 AM)
Low59 °F (Jul 26, 5:00 AM)22% (Jul 18, 6:00 PM)29.77 "Hg (Jul 28, 9:00 PM)
Average73 °F63%29.96 "Hg
* Reported Midnight between Jul 13 and Jul 14 — Midnight between Jul 28 and Jul 29, Neu-Isenburg, Weather by CustomWeather, © 2014

Note: Actual official high and low records may vary slightly from our data, if they occured in-between our weather recording intervals... More about our weather records

Advertising

Neu-Isenburg weather history for previous 24 hours

 ConditionsComfort  
Time TempWeatherWind HumidityBarometerVisibility
12:00 AM
Jul 29
67 °FOvercast.3 mph90%29.79 "Hg16 mi
10:00 PM
Jul 28
71 °FOvercast.2 mph77%29.80 "Hg16 mi
9:00 PM72 °FPartly sunny.3 mph71%29.77 "Hg22 mi
8:00 PM73 °FOvercast.5 mph74%29.78 "Hg19 mi
7:00 PM72 °FThunderstorms. Overcast.2 mph75%29.78 "Hg16 mi
6:00 PM73 °FThundershowers. Overcast.2 mph78%29.80 "Hg22 mi
4:00 PM85 °FScattered clouds.2 mph35%29.78 "Hg22 mi
3:00 PM84 °FScattered clouds.2 mph42%29.80 "Hg22 mi
2:00 PM82 °FScattered clouds.2 mph45%29.82 "Hg22 mi
1:00 PM80 °FOvercast.2 mph45%29.84 "Hg19 mi
12:00 PM79 °FScattered clouds.1 mph56%29.85 "Hg11 mi
11:00 AM76 °FMild.1 mph64%29.87 "HgN/A
10:00 AM73 °FScattered clouds.1 mph73%29.89 "Hg9 mi
9:00 AM69 °FScattered clouds.2 mph80%29.90 "Hg9 mi
8:00 AM68 °FScattered clouds.2 mph79%29.90 "Hg7 mi
7:00 AM66 °FScattered clouds.2 mph87%29.91 "Hg5 mi
6:00 AM65 °FPassing clouds.1 mph90%29.91 "Hg6 mi
4:00 AM67 °FPassing clouds.1 mph86%29.92 "Hg16 mi
3:00 AM66 °FPassing clouds.1 mph87%29.93 "Hg19 mi
2:00 AM67 °FPassing clouds.1 mph83%29.95 "Hg19 mi
1:00 AM69 °FPassing clouds.No wind77%29.96 "Hg19 mi
Weather by CustomWeather, © 2014

See weather overviewHow to use our weather pages